N97055 KLWM-KHYA

Flight info

Callsign N97055
Flight time N/A
Altitude 3500
Route KLWM KHYA
Aircraft C172/L-ACIO/L

Departure

Time 2026-04-11 21:35
Airport Lawrence Municipal Airport (KLWM)

Arrival

Time N/A
Airport Cape Cod Gateway Airport (KHYA)
Time Latitude Longitude Altitude Speed Heading
2026-04-11 21:28 42.71513 -71.12125 148 ft 0 kts 117°
2026-04-11 21:29 42.71510 -71.12120 149 ft 0 kts 166°
2026-04-11 21:30 42.71492 -71.12140 149 ft 0 kts 216°
2026-04-11 21:31 42.71491 -71.12141 149 ft 0 kts 224°
2026-04-11 21:31 42.71493 -71.12166 147 ft 9 kts 295°
2026-04-11 21:32 42.71385 -71.12338 141 ft 17 kts 220°
2026-04-11 21:32 42.71289 -71.12459 138 ft 20 kts 224°
2026-04-11 21:32 42.71180 -71.12600 135 ft 22 kts 223°
2026-04-11 21:32 42.71076 -71.12736 136 ft 16 kts 236°
2026-04-11 21:33 42.71057 -71.12800 135 ft 0 kts 271°
2026-04-11 21:33 42.71057 -71.12804 135 ft 4 kts 273°
2026-04-11 21:33 42.71093 -71.12868 136 ft 7 kts 346°
2026-04-11 21:34 42.71167 -71.12810 137 ft 32 kts 39°
2026-04-11 21:34 42.71479 -71.12481 171 ft 74 kts 38°
2026-04-11 21:34 42.71924 -71.12002 353 ft 84 kts 38°
2026-04-11 21:34 42.72375 -71.11498 623 ft 83 kts 39°
2026-04-11 21:35 42.72818 -71.10998 870 ft 82 kts 40°
2026-04-11 21:35 42.73211 -71.10487 1166 ft 76 kts 44°
2026-04-11 21:35 42.73581 -71.09955 1407 ft 76 kts 51°
2026-04-11 21:35 42.73816 -71.09280 1612 ft 80 kts 79°
2026-04-11 21:36 42.73736 -71.08527 1817 ft 81 kts 116°
2026-04-11 21:36 42.73368 -71.07889 2001 ft 87 kts 143°
2026-04-11 21:36 42.72833 -71.07588 2219 ft 87 kts 173°
2026-04-11 21:36 42.72205 -71.07485 2371 ft 96 kts 172°
2026-04-11 21:37 42.71576 -71.07323 2671 ft 91 kts 169°
2026-04-11 21:37 42.70962 -71.07134 2912 ft 87 kts 167°
2026-04-11 21:37 42.70367 -71.06929 3135 ft 86 kts 168°
2026-04-11 21:37 42.69708 -71.06716 3271 ft 88 kts 166°
2026-04-11 21:38 42.69545 -71.06057 3419 ft 100 kts 58°
2026-04-11 21:38 42.69951 -71.05209 3503 ft 110 kts 57°
2026-04-11 21:38 42.70379 -71.04312 3503 ft 113 kts 56°
2026-04-11 21:38 42.70816 -71.03398 3429 ft 118 kts 57°
2026-04-11 21:39 42.71242 -71.02474 3459 ft 114 kts 57°
2026-04-11 21:39 42.71678 -71.01524 3455 ft 109 kts 57°
2026-04-11 21:39 42.72067 -71.00639 3476 ft 112 kts 64°
2026-04-11 21:39 42.72343 -70.99639 3474 ft 113 kts 71°
2026-04-11 21:40 42.72582 -70.98623 3512 ft 113 kts 70°
2026-04-11 21:40 42.72876 -70.97641 3534 ft 112 kts 66°
2026-04-11 21:40 42.73161 -70.96664 3543 ft 112 kts 70°
2026-04-11 21:40 42.73412 -70.95658 3526 ft 113 kts 71°